period_start,C,m1,H,J0,J1,J2,J3,J4,J5,JA,JB,JC,JD,JJ,JK,JN,#
2014-03-06 00:00:51,0.22,0.18,0.00,20.62,26.45,29.31,6.17,30.83,1027.42,2044.02,3436.54,3288.11,3575.81,350.16,330.19,1.02,0000 0000 0000 0000 000000
2014-03-06 00:01:51,0.22,0.18,0.00,20.61,26.45,29.26,6.13,30.88,1027.37,2044.01,3435.91,3287.58,3575.31,350.30,330.74,1.03,0000 0000 0000 0000 000000
2014-03-06 00:02:51,0.26,0.18,0.00,20.62,26.45,29.27,6.11,30.67,1027.39,2044.01,3435.32,3287.20,3574.75,349.32,330.03,1.03,0000 0000 0000 0000 000000
2014-03-06 00:03:52,0.20,0.19,0.00,20.62,26.45,29.27,6.19,30.71,1027.40,2044.02,3434.69,3286.80,3574.28,349.54,329.62,1.04,0000 0000 0000 0000 000000
2014-03-06 00:04:52,0.24,0.19,0.00,20.62,26.44,29.23,6.21,30.67,1027.39,2044.01,3434.09,3286.31,3573.82,350.04,330.09,1.05,0000 0000 0000 0000 000000
2014-03-06 00:05:52,0.24,0.19,0.00,20.62,26.43,29.25,6.04,30.63,1027.40,2044.02,3433.44,3285.91,3573.30,349.44,329.53,1.05,0000 0000 0000 0000 000000
2014-03-06 00:06:52,0.24,0.19,0.00,20.62,26.43,29.31,6.02,30.71,1027.43,2044.02,3432.89,3285.37,3572.85,350.00,330.06,1.06,0000 0000 0000 0000 000000
2014-03-06 00:07:52,0.24,0.19,0.00,20.62,26.42,29.27,6.19,30.71,1027.45,2044.00,3432.26,3285.01,3572.32,349.18,329.30,1.06,0000 0000 0000 0000 000000
2014-03-06 00:08:53,0.21,0.19,0.00,20.63,26.42,29.20,6.10,30.83,1027.45,2044.02,3431.59,3284.43,3571.94,350.02,330.08,1.07,0000 0000 0000 0000 000000
2014-03-06 00:09:53,0.26,0.19,0.00,20.62,26.42,29.30,6.08,30.88,1027.40,2044.01,3431.03,3284.11,3571.38,349.27,329.37,1.07,0000 0000 0000 0000 000000
2014-03-06 00:10:53,0.20,0.20,0.00,20.61,26.42,29.32,6.19,30.88,1027.43,2044.03,3430.40,3283.63,3571.04,350.44,330.48,1.08,0000 0000 0000 0000 000000
2014-03-06 00:11:53,0.24,0.20,0.00,20.60,26.42,29.31,6.09,30.92,1027.41,2044.04,3429.70,3283.22,3570.44,349.50,329.67,1.09,0000 0000 0000 0000 000000
2014-03-06 00:12:54,0.25,0.20,0.00,20.60,26.42,29.31,6.19,30.88,1027.38,2044.05,3429.05,3282.67,3570.00,349.39,329.54,1.09,0000 0000 0000 0000 000000
2014-03-06 00:13:54,0.32,0.20,0.00,20.59,26.41,29.33,6.32,31.00,1027.41,2044.11,3428.41,3282.23,3569.43,351.00,330.56,1.10,0000 0000 0000 0000 000000
2014-03-06 00:14:54,0.27,0.20,0.00,20.58,26.40,29.32,6.03,30.88,1027.40,2044.24,3427.76,3281.78,3568.98,349.69,329.80,1.10,0000 0000 0000 0000 000000
2014-03-06 00:15:54,0.33,0.20,0.00,20.55,26.40,29.30,5.99,31.00,1027.44,2044.21,3427.10,3281.29,3568.38,348.98,329.19,1.11,0000 0000 0000 0000 000000
2014-03-06 00:16:54,0.23,0.20,0.00,20.53,26.40,29.27,6.29,30.79,1027.40,2044.18,3426.40,3280.82,3567.89,350.43,330.29,1.12,0000 0000 0000 0000 000000
2014-03-06 00:17:55,0.27,0.21,0.00,20.50,26.40,29.28,6.27,30.96,1027.39,2044.16,3425.69,3280.31,3567.32,350.20,330.38,1.12,0000 0000 0000 0000 000000
2014-03-06 00:18:55,0.19,0.21,0.00,20.47,26.40,29.28,6.11,30.71,1027.38,2044.26,3425.09,3279.83,3566.76,349.93,329.86,1.13,0000 0000 0000 0000 000000
2014-03-06 00:19:55,0.37,0.21,0.00,20.44,26.40,29.26,6.23,30.92,1027.37,2044.31,3424.43,3279.31,3566.25,349.61,329.79,1.13,0000 0000 0000 0000 000000
2014-03-06 00:20:55,0.28,0.21,0.00,20.42,26.40,29.25,6.22,31.00,1027.38,2044.37,3423.75,3278.86,3565.64,350.48,330.73,1.14,0000 0000 0000 0000 000000
2014-03-06 00:21:55,0.31,0.21,0.00,20.39,26.39,29.24,6.04,30.88,1027.37,2044.39,3423.03,3278.32,3565.16,349.35,329.73,1.14,0000 0000 0000 0000 000000
2014-03-06 00:22:56,0.28,0.22,0.00,20.37,26.38,29.24,6.10,30.75,1027.40,2044.40,3422.28,3277.78,3564.51,349.64,330.29,1.15,0000 0000 0000 0000 000000
2014-03-06 00:23:56,0.30,0.22,0.00,20.35,26.37,29.22,6.30,30.96,1027.40,2044.56,3421.55,3277.28,3564.07,350.30,330.77,1.16,0000 0000 0000 0000 000000
2014-03-06 00:24:56,0.38,0.22,0.00,20.32,26.37,29.15,6.21,30.75,1027.38,2044.63,3420.85,3276.81,3563.45,350.41,330.78,1.16,0000 0000 0000 0000 000000
2014-03-06 00:25:56,0.31,0.22,0.00,20.29,26.37,29.20,6.26,30.96,1027.38,2044.60,3420.20,3276.30,3562.89,350.64,331.12,1.17,0000 0000 0000 0000 000000
2014-03-06 00:26:56,0.27,0.22,0.00,20.26,26.37,29.18,6.13,31.00,1027.39,2044.65,3419.48,3275.83,3562.33,350.18,330.68,1.17,0000 0000 0000 0000 000000
2014-03-06 00:27:57,0.29,0.22,0.00,20.23,26.37,29.18,6.09,30.83,1027.40,2044.74,3418.78,3275.30,3561.74,350.07,330.55,1.18,0000 0000 0000 0000 000000
2014-03-06 00:28:57,0.33,0.23,0.00,20.20,26.36,29.15,6.22,30.96,1027.39,2044.79,3418.15,3274.84,3561.20,350.41,330.92,1.19,0000 0000 0000 0000 000000
2014-03-06 00:29:57,0.30,0.23,0.00,20.18,26.35,29.14,6.15,30.88,1027.41,2044.63,3417.37,3274.28,3560.54,349.74,330.38,1.19,0000 0000 0000 0000 000000
2014-03-06 00:30:58,0.14,0.23,0.00,20.15,26.35,29.06,6.08,30.88,1027.39,2044.56,3416.58,3273.62,3560.03,348.19,328.87,1.20,0000 0000 0000 0000 000000
2014-03-06 00:31:58,0.23,0.23,0.00,20.12,26.35,29.07,6.23,31.04,1027.39,2044.58,3415.83,3273.20,3559.42,350.66,331.24,1.20,0000 0000 0000 0000 000000
2014-03-06 00:32:58,0.33,0.23,0.00,20.09,26.35,29.01,6.17,31.00,1027.37,2044.78,3415.22,3272.72,3559.06,349.89,330.54,1.21,0000 0000 0000 0000 000000
2014-03-06 00:33:58,0.41,0.23,0.00,20.06,26.33,29.05,6.15,30.83,1027.37,2044.89,3414.54,3272.25,3558.44,349.42,330.33,1.22,0000 0000 0000 0000 000000
2014-03-06 00:34:58,0.29,0.24,0.00,20.03,26.32,28.99,6.25,31.13,1027.37,2044.89,3413.90,3271.72,3557.93,350.80,331.46,1.22,0000 0000 0000 0000 000000
2014-03-06 00:35:59,0.31,0.24,0.00,20.00,26.32,28.92,6.03,30.92,1027.39,2044.94,3413.31,3271.27,3557.35,349.84,330.60,1.23,0000 0000 0000 0000 000000
2014-03-06 00:36:59,0.24,0.24,0.00,19.96,26.32,28.90,6.23,30.92,1027.39,2044.96,3412.67,3270.92,3556.86,350.23,331.16,1.23,0000 0000 0000 0000 000000
2014-03-06 00:37:59,0.28,0.24,0.00,19.94,26.31,28.86,6.23,30.92,1027.38,2044.94,3412.01,3270.35,3556.32,350.41,331.19,1.24,0000 0000 0000 0000 000000
2014-03-06 00:38:59,0.25,0.24,0.00,19.91,26.30,28.84,6.34,31.00,1027.38,2044.97,3411.34,3270.00,3555.82,350.46,331.29,1.24,0000 0000 0000 0000 000000
2014-03-06 00:40:00,0.25,0.24,0.00,19.88,26.30,28.78,6.27,31.04,1027.38,2044.97,3410.62,3269.42,3555.28,350.92,331.93,1.25,0000 0000 0000 0000 000000
2014-03-06 00:41:00,0.27,0.25,0.00,19.84,26.30,28.76,6.20,30.83,1027.39,2044.97,3409.93,3269.05,3554.70,349.72,330.66,1.26,0000 0000 0000 0000 000000
2014-03-06 00:42:00,0.26,0.25,0.00,19.81,26.29,28.70,6.16,30.92,1027.38,2044.98,3409.30,3268.46,3554.24,349.52,330.51,1.26,0000 0000 0000 0000 000000
2014-03-06 00:43:00,0.25,0.25,0.00,19.78,26.27,28.63,6.17,30.83,1027.38,2044.99,3408.59,3268.14,3553.71,350.85,331.26,1.27,0000 0000 0000 0000 000000
2014-03-06 00:44:01,0.24,0.25,0.00,19.75,26.27,28.60,6.20,30.92,1027.37,2044.99,3408.14,3267.66,3553.25,349.74,330.78,1.27,0000 0000 0000 0000 000000
2014-03-06 00:45:01,0.22,0.25,0.00,19.72,26.26,28.55,6.18,30.88,1027.36,2044.99,3407.50,3267.24,3552.79,350.06,331.30,1.28,0000 0000 0000 0000 000000
2014-03-06 00:46:01,0.23,0.25,0.00,19.70,26.25,28.51,6.23,30.96,1027.37,2044.99,3406.93,3266.79,3552.29,349.97,331.22,1.29,0000 0000 0000 0000 000000
2014-03-06 00:47:01,0.26,0.25,0.00,19.67,26.25,28.55,6.17,31.04,1027.36,2044.99,3406.28,3266.29,3551.74,349.35,330.43,1.29,0000 0000 0000 0000 000000
2014-03-06 00:48:01,0.24,0.26,0.00,19.63,26.23,28.44,6.19,31.00,1027.36,2044.99,3405.55,3265.86,3551.28,350.26,331.42,1.30,0000 0000 0000 0000 000000
2014-03-06 00:49:02,0.25,0.26,0.00,19.61,26.22,28.45,6.13,30.92,1027.38,2044.99,3404.87,3265.33,3550.92,350.38,331.54,1.30,0000 0000 0000 0000 000000
2014-03-06 00:50:02,0.23,0.26,0.00,19.57,26.22,28.40,6.25,31.04,1027.36,2044.99,3404.26,3265.05,3550.42,349.68,330.92,1.31,0000 0000 0000 0000 000000
2014-03-06 00:51:02,0.19,0.26,0.00,19.54,26.20,28.40,6.08,30.83,1027.37,2044.99,3403.63,3264.53,3549.99,350.28,331.53,1.31,0000 0000 0000 0000 000000
2014-03-06 00:52:03,0.29,0.26,0.00,19.51,26.20,28.35,6.32,30.92,1027.36,2044.99,3402.84,3264.16,3549.43,351.08,332.31,1.32,0000 0000 0000 0000 000000
2014-03-06 00:53:03,0.23,0.26,0.00,19.48,26.19,28.31,6.10,31.00,1027.36,2044.99,3402.21,3263.69,3549.04,350.32,331.63,1.33,0000 0000 0000 0000 000000
2014-03-06 00:54:03,0.24,0.26,0.00,19.45,26.17,28.24,6.12,31.04,1027.36,2045.00,3401.53,3263.26,3548.46,349.69,331.31,1.33,0000 0000 0000 0000 000000
2014-03-06 00:55:03,0.26,0.27,0.00,19.42,26.17,28.18,6.12,30.96,1027.36,2045.00,3400.86,3262.91,3548.04,349.51,330.68,1.34,0000 0000 0000 0000 000000
2014-03-06 00:56:03,0.22,0.27,0.00,19.40,26.15,28.19,6.13,31.04,1027.36,2045.01,3400.16,3262.37,3547.43,349.99,331.61,1.34,0000 0000 0000 0000 000000
2014-03-06 00:57:04,0.28,0.27,0.00,19.36,26.15,28.14,6.23,31.17,1027.36,2045.02,3399.46,3262.02,3546.99,349.38,330.87,1.35,0000 0000 0000 0000 000000
2014-03-06 00:58:04,0.23,0.27,0.00,19.33,26.13,28.07,6.18,31.25,1027.36,2045.04,3398.83,3261.45,3546.42,350.09,331.58,1.36,0000 0000 0000 0000 000000
2014-03-06 00:59:04,0.30,0.27,0.00,19.30,26.12,28.04,6.05,31.08,1027.36,2045.07,3398.23,3261.10,3545.88,349.70,331.24,1.36,0000 0000 0000 0000 000000
2014-03-06 01:00:04,0.24,0.27,0.00,19.28,26.10,28.05,6.08,31.04,1027.36,2045.11,3397.54,3260.52,3545.33,349.63,331.11,1.37,0000 0000 0000 0000 000000
2014-03-06 01:01:04,0.33,0.28,0.00,19.25,26.10,28.01,6.30,31.08,1027.36,2045.31,3396.97,3260.19,3544.94,350.32,332.17,1.37,0000 0000 0000 0000 000000
2014-03-06 01:02:04,0.35,0.28,0.00,19.22,26.07,28.00,6.16,31.13,1027.36,2045.51,3396.35,3259.76,3544.38,350.09,331.59,1.38,0000 0000 0000 0000 000000
2014-03-06 01:03:05,0.44,0.28,0.00,19.19,26.07,27.97,6.14,31.13,1027.36,2045.71,3395.65,3259.27,3544.07,349.84,331.50,1.39,0000 0000 0000 0000 000000
2014-03-06 01:04:05,0.36,0.28,0.00,19.15,26.05,27.93,6.09,31.21,1027.36,2045.77,3395.08,3258.92,3543.50,349.41,331.07,1.39,0000 0000 0000 0000 000000
2014-03-06 01:05:05,0.27,0.28,0.00,19.12,26.04,27.89,6.01,31.00,1027.36,2045.86,3394.43,3258.38,3543.10,349.81,331.56,1.40,0000 0000 0000 0000 000000
2014-03-06 01:06:05,0.30,0.29,0.00,19.09,26.02,27.86,6.10,31.04,1027.36,2045.91,3393.91,3258.08,3542.50,349.84,331.87,1.40,0000 0000 0000 0000 000000
2014-03-06 01:07:06,0.24,0.29,0.00,19.07,26.01,27.81,6.33,31.08,1027.37,2045.94,3393.32,3257.56,3542.15,350.34,332.12,1.41,0000 0000 0000 0000 000000
2014-03-06 01:08:06,0.25,0.29,0.00,19.04,26.00,27.76,6.28,31.00,1027.37,2045.97,3392.63,3257.20,3541.62,350.32,331.82,1.41,0000 0000 0000 0000 000000
2014-03-06 01:09:06,0.27,0.29,0.00,19.01,25.98,27.74,6.16,31.25,1027.36,2045.99,3392.11,3256.88,3541.23,349.92,331.44,1.42,0000 0000 0000 0000 000000
2014-03-06 01:10:06,0.20,0.29,0.00,18.98,25.97,27.71,6.48,31.25,1027.36,2045.98,3391.47,3256.34,3540.81,350.72,332.55,1.43,0000 0000 0000 0000 000000
2014-03-06 01:11:06,0.25,0.29,0.00,18.95,25.95,27.73,6.27,31.00,1027.36,2045.99,3391.10,3256.09,3540.34,350.95,332.28,1.43,0000 0000 0000 0000 000000
2014-03-06 01:12:06,0.15,0.29,0.00,18.93,25.94,27.67,6.29,31.08,1027.36,2045.99,3390.48,3255.63,3539.90,350.91,332.81,1.44,0000 0000 0000 0000 000000
2014-03-06 01:13:07,0.26,0.29,0.00,18.91,25.92,27.62,6.29,31.25,1027.36,2045.99,3389.96,3255.23,3539.35,349.74,331.73,1.44,0000 0000 0000 0000 000000
2014-03-06 01:14:07,0.20,0.30,0.00,18.89,25.90,27.58,6.24,31.00,1027.36,2045.99,3389.30,3254.85,3539.03,350.30,332.28,1.45,0000 0000 0000 0000 000000
2014-03-06 01:15:07,0.21,0.30,0.00,18.87,25.89,27.59,6.07,30.96,1027.37,2046.00,3388.61,3254.34,3538.47,349.32,331.37,1.46,0000 0000 0000 0000 000000
2014-03-06 01:16:08,0.28,0.30,0.00,18.87,25.87,27.57,6.20,31.17,1027.36,2046.01,3388.04,3254.03,3538.12,350.10,332.11,1.46,0000 0000 0000 0000 000000
2014-03-06 01:17:08,0.14,0.30,0.00,18.86,25.86,27.52,6.09,30.88,1027.36,2046.02,3387.42,3253.49,3537.57,350.26,332.28,1.47,0000 0000 0000 0000 000000
2014-03-06 01:18:08,0.31,0.30,0.00,18.86,25.84,27.51,6.16,31.17,1027.36,2046.04,3386.88,3253.18,3537.20,349.68,331.73,1.47,0000 0000 0000 0000 000000
2014-03-06 01:19:08,0.20,0.30,0.00,18.84,25.82,27.49,6.30,31.21,1027.36,2046.10,3386.30,3252.90,3536.86,351.28,333.14,1.48,0000 0000 0000 0000 000000
2014-03-06 01:20:08,0.25,0.30,0.00,18.85,25.81,27.47,6.22,30.96,1027.36,2046.14,3385.63,3252.37,3536.35,350.42,332.48,1.48,0000 0000 0000 0000 000000
2014-03-06 01:21:09,0.29,0.31,0.00,18.84,25.80,27.42,6.24,31.04,1027.36,2046.29,3385.06,3252.07,3536.00,350.19,332.17,1.49,0000 0000 0000 0000 000000
2014-03-06 01:22:09,0.30,0.31,0.00,18.83,25.77,27.39,6.30,31.17,1027.36,2046.55,3384.41,3251.54,3535.42,350.30,332.36,1.50,0000 0000 0000 0000 000000
2014-03-06 01:23:09,0.48,0.31,0.00,18.82,25.76,27.38,6.24,31.13,1027.36,2046.77,3383.89,3251.18,3535.11,350.42,332.47,1.50,0000 0000 0000 0000 000000
2014-03-06 01:24:10,0.34,0.31,0.00,18.82,25.75,27.38,6.31,31.13,1027.36,2046.86,3383.32,3250.84,3534.57,350.21,332.28,1.51,0000 0000 0000 0000 000000
2014-03-06 01:25:10,0.27,0.31,0.00,18.80,25.72,27.39,6.17,31.25,1027.36,2046.93,3382.67,3250.36,3534.18,350.18,332.27,1.51,0000 0000 0000 0000 000000
2014-03-06 01:26:10,0.29,0.32,0.00,18.78,25.71,27.37,6.12,31.13,1027.36,2046.97,3382.12,3250.06,3533.71,350.31,332.41,1.52,0000 0000 0000 0000 000000
2014-03-06 01:27:10,0.21,0.32,0.00,18.77,25.70,27.35,6.20,31.21,1027.36,2046.98,3381.48,3249.54,3533.25,350.08,332.21,1.53,0000 0000 0000 0000 000000
2014-03-06 01:28:11,0.29,0.32,0.00,18.77,25.68,27.37,6.25,31.21,1027.36,2046.99,3380.96,3249.17,3532.91,350.44,332.38,1.53,0000 0000 0000 0000 000000
2014-03-06 01:29:11,0.18,0.32,0.00,18.76,25.66,27.37,6.09,31.25,1027.36,2046.99,3380.35,3248.78,3532.35,349.50,331.80,1.54,0000 0000 0000 0000 000000
2014-03-06 01:30:11,0.25,0.32,0.00,18.75,25.65,27.34,6.21,31.29,1027.36,2046.99,3379.68,3248.30,3532.01,350.65,332.78,1.54,0000 0000 0000 0000 000000
2014-03-06 01:31:11,0.22,0.32,0.00,18.74,25.63,27.32,6.21,31.46,1027.36,2046.99,3379.12,3247.97,3531.44,350.20,332.20,1.55,0000 0000 0000 0000 000000
2014-03-06 01:32:12,0.20,0.32,0.00,18.75,25.61,27.33,6.27,31.17,1027.36,2046.99,3378.45,3247.44,3531.07,349.31,331.50,1.55,0000 0000 0000 0000 000000
2014-03-06 01:33:12,0.26,0.33,0.00,18.76,25.60,27.33,6.18,31.08,1027.36,2046.99,3377.94,3247.16,3530.51,350.29,332.41,1.56,0000 0000 0000 0000 000000
2014-03-06 01:34:12,0.19,0.33,0.00,18.77,25.58,27.36,6.09,30.96,1027.36,2046.99,3377.37,3246.79,3530.18,349.45,331.61,1.57,0000 0000 0000 0000 000000
2014-03-06 01:35:13,0.20,0.33,0.00,18.79,25.57,27.32,6.28,31.08,1027.36,2046.99,3376.85,3246.30,3529.81,351.16,333.22,1.57,0000 0000 0000 0000 000000
2014-03-06 01:36:13,0.22,0.33,0.00,18.79,25.55,27.32,6.18,30.83,1027.36,2046.99,3376.27,3245.97,3529.31,349.61,331.73,1.58,0000 0000 0000 0000 000000
2014-03-06 01:37:13,0.21,0.33,0.00,18.80,25.54,27.31,6.13,30.96,1027.36,2046.99,3375.59,3245.44,3528.76,349.96,332.06,1.58,0000 0000 0000 0000 000000
2014-03-06 01:38:13,0.27,0.33,0.00,18.82,25.52,27.39,6.11,30.88,1027.35,2046.99,3374.95,3245.12,3528.28,351.21,333.20,1.59,0000 0000 0000 0000 000000
2014-03-06 01:39:13,0.20,0.33,0.00,18.83,25.51,27.33,6.21,30.88,1027.36,2047.00,3374.35,3244.66,3528.02,350.02,331.68,1.60,0000 0000 0000 0000 000000
2014-03-06 01:40:14,0.23,0.33,0.00,18.84,25.50,27.31,6.15,31.17,1027.36,2047.00,3373.76,3244.24,3527.46,349.65,331.69,1.60,0000 0000 0000 0000 000000
2014-03-06 01:41:14,0.24,0.34,0.00,18.86,25.47,27.38,6.32,30.96,1027.36,2047.00,3373.18,3243.91,3527.06,351.58,333.54,1.61,0000 0000 0000 0000 000000
2014-03-06 01:42:14,0.20,0.34,0.00,18.86,25.47,27.41,6.33,31.04,1027.36,2047.01,3372.51,3243.36,3526.47,350.39,332.13,1.61,0000 0000 0000 0000 000000
2014-03-06 01:43:14,0.29,0.34,0.00,18.87,25.45,27.43,6.29,31.08,1027.36,2047.04,3372.01,3243.12,3526.16,349.98,332.42,1.62,0000 0000 0000 0000 000000
2014-03-06 01:44:15,0.19,0.34,0.00,18.88,25.44,27.45,6.24,30.92,1027.36,2047.11,3371.40,3242.60,3525.63,349.34,331.15,1.62,0000 0000 0000 0000 000000
2014-03-06 01:45:15,0.31,0.34,0.00,18.89,25.42,27.45,6.29,31.00,1027.36,2047.18,3370.76,3242.22,3525.21,350.30,332.44,1.63,0000 0000 0000 0000 000000
2014-03-06 01:46:15,0.30,0.34,0.00,18.90,25.42,27.48,6.22,30.96,1027.36,2047.33,3370.25,3241.82,3524.75,350.59,332.53,1.64,0000 0000 0000 0000 000000
2014-03-06 01:47:15,0.34,0.35,0.00,18.92,25.40,27.46,6.12,31.21,1027.36,2047.51,3369.61,3241.31,3524.27,348.69,331.00,1.64,0000 0000 0000 0000 000000
2014-03-06 01:48:16,0.37,0.35,0.00,18.94,25.39,27.48,5.96,31.04,1027.36,2047.69,3369.03,3240.98,3523.79,350.07,332.05,1.65,0000 0000 0000 0000 000000
2014-03-06 01:49:16,0.35,0.35,0.00,18.95,25.37,27.52,6.23,31.29,1027.36,2047.84,3368.38,3240.43,3523.30,349.63,331.61,1.65,0000 0000 0000 0000 000000
2014-03-06 01:50:16,0.39,0.35,0.00,18.97,25.37,27.52,6.14,31.17,1027.36,2047.90,3367.68,3240.12,3522.87,349.26,331.23,1.66,0000 0000 0000 0000 000000
2014-03-06 01:51:17,0.25,0.35,0.00,18.98,25.35,27.55,6.26,31.04,1027.36,2047.94,3367.18,3239.59,3522.32,350.27,332.15,1.67,0000 0000 0000 0000 000000
2014-03-06 01:52:17,0.27,0.36,0.00,19.00,25.35,27.55,6.22,31.25,1027.36,2047.97,3366.55,3239.22,3521.97,350.11,331.99,1.67,0000 0000 0000 0000 000000
2014-03-06 01:53:17,0.23,0.36,0.00,19.02,25.33,27.58,6.13,31.00,1027.36,2047.99,3366.00,3238.90,3521.41,350.15,331.99,1.68,0000 0000 0000 0000 000000
2014-03-06 01:54:18,0.21,0.36,0.00,19.03,25.32,27.62,6.38,31.08,1027.36,2047.99,3365.38,3238.36,3521.04,350.54,332.34,1.68,0000 0000 0000 0000 000000
2014-03-06 01:55:18,0.27,0.36,0.00,19.04,25.31,27.70,6.25,31.21,1027.36,2047.99,3364.75,3237.92,3520.46,350.58,332.37,1.69,0000 0000 0000 0000 000000
2014-03-06 01:56:18,0.25,0.36,0.00,19.06,25.30,27.66,6.38,31.17,1027.36,2047.99,3364.12,3237.38,3520.14,350.61,332.39,1.70,0000 0000 0000 0000 000000
2014-03-06 01:57:18,0.24,0.36,0.00,19.07,25.29,27.61,6.22,31.21,1027.36,2047.99,3363.44,3237.12,3519.63,350.56,332.23,1.70,0000 0000 0000 0000 000000
2014-03-06 01:58:19,0.23,0.36,0.00,19.08,25.28,27.68,6.09,31.08,1027.37,2047.99,3362.71,3236.61,3519.22,349.55,331.32,1.71,0000 0000 0000 0000 000000
2014-03-06 01:59:19,0.26,0.37,0.00,19.09,25.27,27.73,6.11,31.13,1027.36,2047.99,3362.00,3236.18,3518.73,349.39,331.19,1.71,0000 0000 0000 0000 000000
2014-03-06 02:00:19,0.25,0.37,0.00,19.10,25.26,27.75,6.09,31.08,1027.37,2047.99,3361.32,3235.58,3518.24,349.87,331.63,1.72,0000 0000 0000 0000 000000
2014-03-06 02:01:19,0.29,0.37,0.00,19.12,25.25,27.72,6.17,30.96,1027.36,2048.02,3360.59,3235.20,3517.77,349.96,331.92,1.72,0000 0000 0000 0000 000000
2014-03-06 02:02:20,0.27,0.37,0.00,19.13,25.25,27.70,6.14,30.96,1027.36,2048.05,3359.97,3234.69,3517.28,350.25,331.96,1.73,0000 0000 0000 0000 000000
2014-03-06 02:03:20,0.27,0.37,0.00,19.13,25.23,27.76,6.27,31.13,1027.36,2048.05,3359.28,3234.22,3516.70,350.78,332.46,1.74,0000 0000 0000 0000 000000
2014-03-06 02:04:20,0.26,0.37,0.00,19.14,25.22,27.78,6.16,31.04,1027.37,2048.05,3358.54,3233.68,3516.24,349.82,331.54,1.74,0000 0000 0000 0000 000000
2014-03-06 02:05:20,0.29,0.37,0.00,19.15,25.22,27.69,6.14,30.96,1027.36,2048.11,3357.84,3233.24,3515.65,349.21,330.96,1.75,0000 0000 0000 0000 000000
2014-03-06 02:06:21,0.31,0.38,0.00,19.17,25.20,27.69,6.27,31.21,1027.37,2048.19,3357.17,3232.72,3515.10,349.95,331.64,1.75,0000 0000 0000 0000 000000
2014-03-06 02:07:21,0.32,0.38,0.00,19.19,25.20,27.70,6.26,31.04,1027.37,2048.15,3356.45,3232.23,3514.45,350.00,331.66,1.76,0000 0000 0000 0000 000000
2014-03-06 02:08:21,0.27,0.38,0.00,19.19,25.19,27.70,6.11,30.96,1027.36,2048.18,3355.72,3231.61,3513.91,349.87,331.68,1.77,0000 0000 0000 0000 000000
2014-03-06 02:09:21,0.33,0.38,0.00,19.21,25.19,27.67,6.07,31.25,1027.37,2048.25,3355.05,3231.14,3513.34,349.89,331.54,1.77,0000 0000 0000 0000 000000
2014-03-06 02:10:22,0.32,0.38,0.00,19.23,25.18,27.65,6.35,31.25,1027.38,2048.33,3354.25,3230.50,3512.69,350.77,332.34,1.78,0000 0000 0000 0000 000000
2014-03-06 02:11:22,0.38,0.39,0.00,19.25,25.17,27.75,6.23,31.25,1027.37,2048.50,3353.50,3230.09,3512.23,350.57,332.13,1.78,0000 0000 0000 0000 000000
2014-03-06 02:12:22,0.39,0.39,0.00,19.27,25.17,27.78,6.13,31.17,1027.38,2048.69,3352.82,3229.49,3511.65,349.12,330.74,1.79,0000 0000 0000 0000 000000
2014-03-06 02:13:22,0.42,0.39,0.00,19.27,25.16,27.80,6.27,31.25,1027.36,2048.82,3352.21,3229.11,3511.14,350.36,331.91,1.79,0000 0000 0000 0000 000000
2014-03-06 02:14:23,0.34,0.39,0.00,19.28,25.15,27.80,6.07,31.04,1027.37,2048.90,3351.49,3228.52,3510.49,349.44,331.03,1.80,0000 0000 0000 0000 000000
2014-03-06 02:15:23,0.35,0.40,0.00,19.29,25.15,27.79,6.24,31.25,1027.39,2048.94,3350.76,3228.15,3510.10,350.06,331.61,1.81,0000 0000 0000 0000 000000
2014-03-06 02:16:23,0.27,0.40,0.00,19.30,25.15,27.80,6.00,31.25,1027.38,2048.96,3350.06,3227.54,3509.48,349.83,331.23,1.81,0000 0000 0000 0000 000000
2014-03-06 02:17:24,0.30,0.40,0.00,19.32,25.14,27.81,6.10,31.33,1027.40,2048.96,3349.37,3227.09,3508.89,350.02,331.54,1.82,0000 0000 0000 0000 000000
2014-03-06 02:18:24,0.28,0.40,0.00,19.33,25.13,27.81,6.03,31.25,1027.39,2048.96,3348.64,3226.47,3508.33,349.38,331.26,1.82,0000 0000 0000 0000 000000
2014-03-06 02:19:24,0.30,0.40,0.00,19.35,25.12,27.82,6.07,31.17,1027.39,2048.98,3347.93,3226.11,3507.80,348.46,330.09,1.83,0000 0000 0000 0000 000000
2014-03-06 02:20:25,0.25,0.40,0.00,19.36,25.12,27.79,6.09,31.04,1027.39,2048.98,3347.20,3225.51,3507.23,349.78,331.29,1.84,0000 0000 0000 0000 000000
2014-03-06 02:21:25,0.29,0.41,0.00,19.37,25.12,27.83,6.17,31.17,1027.38,2048.99,3346.50,3225.08,3506.62,349.98,331.45,1.84,0000 0000 0000 0000 000000
2014-03-06 02:22:25,0.28,0.41,0.00,19.37,25.11,27.84,6.14,31.21,1027.40,2048.99,3345.87,3224.48,3506.18,349.57,331.43,1.85,0000 0000 0000 0000 000000
2014-03-06 02:23:26,0.27,0.41,0.00,19.39,25.10,27.84,6.13,31.17,1027.39,2048.99,3345.21,3224.10,3505.56,349.90,331.25,1.85,0000 0000 0000 0000 000000
2014-03-06 02:24:26,0.26,0.41,0.00,19.40,25.10,27.87,6.08,31.29,1027.38,2048.99,3344.49,3223.50,3504.98,349.37,330.83,1.86,0000 0000 0000 0000 000000
2014-03-06 02:25:26,0.29,0.41,0.00,19.42,25.10,27.88,6.05,31.21,1027.37,2048.99,3343.75,3223.04,3504.37,349.61,331.11,1.87,0000 0000 0000 0000 000000
2014-03-06 02:26:26,0.27,0.41,0.00,19.43,25.10,27.90,6.05,31.17,1027.37,2048.99,3343.08,3222.43,3503.89,350.29,331.44,1.87,0000 0000 0000 0000 000000
2014-03-06 02:27:27,0.27,0.41,0.00,19.43,25.10,27.90,5.98,31.08,1027.38,2048.99,3342.34,3221.98,3503.34,349.46,330.87,1.88,0000 0000 0000 0000 000000
2014-03-06 02:28:27,0.29,0.42,0.00,19.44,25.10,27.90,6.21,31.08,1027.41,2048.99,3341.59,3221.40,3502.76,350.43,331.79,1.88,0000 0000 0000 0000 000000
2014-03-06 02:29:28,0.29,0.42,0.00,19.46,25.09,27.88,6.17,31.08,1027.41,2048.99,3340.84,3220.86,3502.17,350.49,331.83,1.89,0000 0000 0000 0000 000000
2014-03-06 02:30:28,0.29,0.42,0.00,19.47,25.08,27.93,6.15,31.54,1027.45,2048.99,3340.01,3220.29,3501.51,348.75,330.19,1.89,0000 0000 0000 0000 000000
2014-03-06 02:31:28,0.33,0.42,0.00,19.47,25.07,27.94,6.11,31.38,1027.48,2048.99,3339.28,3219.66,3500.91,349.91,331.26,1.90,0000 0000 0000 0000 000000
2014-03-06 02:32:28,0.30,0.42,0.00,19.49,25.07,27.94,6.08,31.50,1027.53,2048.99,3338.54,3219.23,3500.33,349.79,331.56,1.91,0000 0000 0000 0000 000000
2014-03-06 02:33:29,0.28,0.43,0.00,19.50,25.07,27.92,6.26,31.25,1027.62,2048.99,3337.80,3218.66,3499.80,349.87,331.26,1.91,0000 0000 0000 0000 000000
2014-03-06 02:34:29,0.26,0.43,0.00,19.52,25.07,27.97,6.24,31.17,1027.71,2048.99,3337.10,3218.21,3499.25,350.60,331.97,1.92,0000 0000 0000 0000 000000
2014-03-06 02:35:29,0.29,0.43,0.00,19.53,25.07,27.96,6.22,31.04,1027.78,2048.99,3336.39,3217.60,3498.59,349.21,330.65,1.92,0000 0000 0000 0000 000000
2014-03-06 02:36:30,0.29,0.43,0.00,19.54,25.07,27.91,6.22,31.25,1027.81,2048.99,3335.65,3217.13,3498.10,350.01,331.65,1.93,0000 0000 0000 0000 000000
2014-03-06 02:37:30,0.27,0.43,0.00,19.56,25.07,27.94,6.03,31.00,1027.76,2048.99,3334.97,3216.52,3497.47,350.02,331.39,1.94,0000 0000 0000 0000 000000